Regional Weather Roundup
Issued by NWS

Home | Current Version | Previous Version | Text Only | Print | Product List | Glossary On
Versions: 1 2 3 4 5 6 7 8 9 10 11 12 13 14 15 16 17 18 19 20 21 22 23 24 25 26 27 28 29 30 31 32 33 34 35 36 37 38 39 40 41 42 43 44 45 46 47 48 49 50
000
ASUS42 KTBW 210017
RWRFL
FLORIDA REGIONAL WEATHER ROUNDUP
NATIONAL WEATHER SERVICE TAMPA BAY RUSKIN FL
700 PM EST TUE FEB 20 2018

NOTE: "FAIR" INDICATES FEW OR NO CLOUDS BELOW 12,000 FEET WITH NO
SIGNIFICANT WEATHER AND/OR OBSTRUCTIONS TO VISIBILITY.

FLZ001>010-012>015-112-114-115-210100-
PANHANDLE FLORIDA

CITY           SKY/WX    TMP DP  RH WIND       PRES   REMARKS
PENSACOLA      CLOUDY    72  69  90 SE12      30.24
PENSACOLA NAS  MOCLDY    72  69  90 SE9       30.22S
MILTON NAS     MOCLDY    72  69  90 SE13      30.25
CRESTVIEW      CLOUDY    72  67  84 S6        30.28R
DUKE FIELD     CLOUDY    71  67  88 SE7       30.26R
VALPARAISO     MOCLDY    70  67  92 SE8       30.25R
MARY ESTHER    CLOUDY    70  68  94 SE8       30.24
PANAMA CITY    CLOUDY    74  67  78 SE8       30.26S
TYNDALL AFB    FAIR      74  66  77 SE12      30.27R
APALACHICOLA   CLOUDY    72  70  93 E7        30.28

STATION/POSITION SKY/WX   TEMP    WIND        PRES    WAVE   SWELL
                          AIR SEA DIR/SP/G            HT/PER HT/PER
                          (F)     (DEG/KT/KT) (MB)    (FT/S) (FT/S)
29.2N   88.2W                 72  130/  6/ 10 1022.3R   6/ 8   7/ 8
28.8N   86.0W              74 73  130/ 14/ 16 1023.5R   6/ 8   5/ 8
PANAMA CITY BEAC           69 68  120/ 11/ 11 1025.3R
TOWER C          NOT AVBL

$$
FLZ011-016>038-118-127-128-134-139-239-210100-
NORTH FLORIDA

CITY           SKY/WX    TMP DP  RH WIND       PRES   REMARKS
MARIANNA       FAIR      76  67  73 S6        30.27
TALLAHASSEE    LGT RAIN  73  70  90 NE3       30.30
PERRY          MOCLDY    74  66  76 CALM      30.31S
LIVE OAK       MOCLDY    75  64  69 CALM      30.32R
CROSS CITY     CLOUDY    77  68  74 CALM      30.34R
LAKE CITY      FAIR      73  64  73 E6        30.32R
GAINESVILLE    FAIR      75  66  73 E6        30.34
WILLISTON      CLEAR     81  66  61 NE5       30.30S
PALATKA        CLOUDY    73  70  88 SE8       30.35R
MAYPORT NAS    FAIR      71  68  90 E10       30.36S
JACKSONVILLE   FAIR      73  68  84 E10       30.35R
JAX NAS        FAIR      75  68  78 SE12      30.36R
JAX CECIL      PTCLDY    73  70  88 SE12      30.35
FERNANDINA BEA FAIR      70  66  88 E9        30.36S
ST AUGUSTINE   FAIR      68  67  96 SE8       30.37R
PALM COAST     CLEAR     72  68  88 SE8       30.36

STATION/POSITION SKY/WX   TEMP    WIND        PRES    WAVE   SWELL
                          AIR SEA DIR/SP/G            HT/PER HT/PER
                          (F)     (DEG/KT/KT) (MB)    (FT/S) (FT/S)
SHELL POINT      NOT AVBL
KEATON BEACH     NOT AVBL
CEDAR KEY        NOT AVBL
FERNANDINA                 71 68  100/  6/  8 1029.3R
30.7N   81.3W                 63                N/A     4/ 6
MAYPORT                    70 64  120/  6/ 11 1028.3R
31.4N   80.9W              63 59  120/  6/  8 1029.0R   4/ 6   3/ 6
ST AUGUSTINE     NOT AVBL

$$
FLZ040-043>046-052-053-057-058-063-144-210100-
INTERIOR CENTRAL FLORIDA

CITY           SKY/WX    TMP DP  RH WIND       PRES   REMARKS
OCALA          FAIR      79  66  64 NE3       30.31
LEESBURG       FAIR      79  68  69 E12       30.32
SANFORD        FAIR      76  68  76 E12       30.34
ORLANDO EXEC   FAIR      77  69  76 E10       30.33
ORLANDO INTL   MOCLDY    76  69  79 E14       30.33R
KISSIMMEE      FAIR      77  69  76 E13       30.33R
WINTER HAVEN   FAIR      78  69  73 E14       30.31
LAKELAND       PTCLDY    79  63  57 SE7       30.29R
BARTOW         MOCLDY    77  68  73 E10       30.30R
SEBRING        FAIR      79  67  66 E8        30.31R
OKEECHOBEE     FAIR      73  68  83 E6        30.32R

$$
FLZ041-047-054-059-064-141-147-210100-
EAST CENTRAL FLORIDA

CITY           SKY/WX    TMP DP  RH WIND       PRES   REMARKS
DAYTONA BEACH  FAIR      74  70  87 E8        30.35R
DELAND         FAIR      73  68  83 E12       30.34R
NEW SMYRNA BEA PTCLDY    73  68  83 SE12      30.36
JFK SPACE CTR  CLOUDY    73  73 100 E7        30.34R
TITUSVILLE     MOCLDY    77  73  88 E12       30.34
CAPE CANAVERAL CLOUDY    71  69  90 E5        30.34R
PATRICK AFB    FAIR      74  71  89 E12       30.34R
MELBOURNE      MOCLDY    77  70  79 E14       30.34
VERO BEACH     FAIR      75  72  90 E12       30.34
FT PIERCE      CLOUDY    75  73  93 E14       30.33R
STUART         MOCLDY    73  72  94 SE10      30.34R

STATION/POSITION SKY/WX   TEMP    WIND        PRES    WAVE   SWELL
                          AIR SEA DIR/SP/G            HT/PER HT/PER
                          (F)     (DEG/KT/KT) (MB)    (FT/S) (FT/S)
28.5N   80.2W              75 74  100/ 16/ 19 1027.8R   5/ 8   3/ 8
TRIDENT PIER               74 73  100/  7/ 12 1028.8R
28.4N   80.5W                 72                N/A     3/ 7
27.5N   80.2W                 75                N/A     5/ 6

$$
FLZ050-056-061-142-242-148-248-149-249-151-251-155-255-
160-260-210100-
WEST CENTRAL FLORIDA

CITY           SKY/WX    TMP DP  RH WIND       PRES   REMARKS
CRYSTAL RIVER  FAIR      79  61  53 E3        30.28S
INVERNESS      CLOUDY    79  64  61 E3        30.30R
BROOKSVILLE    FAIR      80  60  50 E6        30.28
CLEARWATER AIR CLOUDY    73  68  83 N5        30.28S
ST PETE CLEARW MOCLDY    78  67  68 W3        30.27
TAMPA INTL     MOCLDY    79  68  69 W5        30.28
TAMPA EXEC     FAIR      81  63  54 CALM      30.29R
PLANT CITY     FAIR      82  63  51 SE6       30.30S
MACDILL AFB    FAIR      73  68  83 CALM      30.27S
PETER O KNIGHT CLOUDY    79  68  69 CALM      30.28R
ST PETERSBURG  FAIR      78  66  66 CALM      30.25
SARASOTA       MOCLDY    77  68  73 CALM      30.26
VENICE         FAIR      77  70  78 S5        30.27R

STATION/POSITION SKY/WX   TEMP    WIND        PRES    WAVE   SWELL
                          AIR SEA DIR/SP/G            HT/PER HT/PER
                          (F)     (DEG/KT/KT) (MB)    (FT/S) (FT/S)
27.3N   84.2W                 73                N/A     5/ 6
CLEARWATER BEACH           73 72  360/  7/  7 1025.3R
MIDDLE TAMPA BAY           75     330/  2/  3 1025.1R
VENICE           NOT AVBL

$$
FLZ066-069-070-075>078-162-262-165-265-210100-
SOUTHWEST FLORIDA AND KEYS

CITY           SKY/WX    TMP DP  RH WIND       PRES   REMARKS
PUNTA GORDA    FAIR      79  66  64 SE6       30.28
FT MYERS       FAIR      81  65  58 SE7       30.26
SOUTHWEST INTL FAIR      79  66  64 E7        30.27
NAPLES         FAIR      80  66  62 SE8       30.26
MARCO ISLAND   FAIR      78  67  68 E10       30.28R
IMMOKALEE      FAIR      77  66  69 E6        30.29R
MARATHON       FAIR      78  69  73 E15G23    30.25
KEY WEST NAS   FAIR      76  75  97 E20G29    30.23R
KEY WEST INTL  FAIR      78  72  81 E20G26    30.24

STATION/POSITION SKY/WX   TEMP    WIND        PRES    WAVE   SWELL
                          AIR SEA DIR/SP/G            HT/PER HT/PER
                          (F)     (DEG/KT/KT) (MB)    (FT/S) (FT/S)
NAPLES                        74  120/  7/ 11 1024.8R
DRY TORTUGAS     NOT AVBL
SAND KEY                   77                 1024.0R

$$
FLZ067-068-071>074-168-172>174-210100-
SOUTHEAST FLORIDA

CITY           SKY/WX    TMP DP  RH WIND       PRES   REMARKS
W PALM BEACH   FAIR      77  71  82 E14       30.32R
BOCA RATON     PTCLDY    77  72  83 SE13      30.31R
FT LAUDER-EXEC FAIR      77  72  84 E16       30.30R
FT LAUDERDALE  FAIR      77  73  87 E16       30.30R
POMPANO BEACH  FAIR      77  72  84 E13       30.31
PEMBROKE PINES FAIR      78  71  79 E13       30.31R
OPA LOCKA      FAIR      77  71  82 E13       30.30R
MIAMI          MOCLDY    78  72  81 E18       30.30
WEST KENDALL   FAIR      75  70  84 E13       30.29
HOMESTEAD      FAIR      76  71  85 E12       30.28R

STATION/POSITION SKY/WX   TEMP    WIND        PRES    WAVE   SWELL
                          AIR SEA DIR/SP/G            HT/PER HT/PER
                          (F)     (DEG/KT/KT) (MB)    (FT/S) (FT/S)
PORT EVERGLADES            77      90/ 11/ 15 1026.0R
VIRGINIA KEY                       70/ 12/ 17   N/A
LAKE WORTH                 76 77  110/ 17/ 20 1027.4R

$$




USA.gov is the U.S. government's official web portal to all federal, state and local government web resources and services.